Tracking 30995 objects as of 5-Jul-2025
HD Live streaming from Space Station
objects crossing your sky now

SL-8 DEB

Track SL-8 DEB now!
10-day predictions


NORAD ID: 7560
Int'l Code: 1972-062D
Perigee: 827.7 km
Apogee: 922.5 km
Inclination: 83.0 °
Period: 102.3 minutes
Semi major axis: 7246 km
RCS: 0.0247 m2 (small)
Launch date: August 16, 1972
Source: Commonwealth of Independent States (former USSR) (CIS)
Launch site: PLESETSK MISSILE AND SPACE COMPLEX (PKMTR)

Note: This is SATELLITE DEBRIS
Your satellite tracking list
STARLINK-1592
Track 1 satellite(s)




NASA's NSSDC Master Catalog

Two Line Element Set (TLE):
1 07560U 72062D   25185.12735652  .00000208  00000-0  11172-3 0  9992
2 07560  82.9727  73.3092 0065447 244.2271 115.2140 14.07492465590625
Source of the keplerian elements: AFSPC